N7QNM-13 Weather Reports


Display with metric or nautical units.
time (UTC)temp
F
wind
direction
speed
MPH
gust
MPH
rain 1hr
in
rain 24hr
in
rain mn
in
humidity
%
barometer
mb
20211020125523 45 236 1.0 2.0 0.00 0.00 0.00 91 1006.5
20211020124525 45 0.0 0.0 0.00 0.00 0.00 91 1006.5
20211020123522 45 146 1.0 2.0 0.00 0.00 0.00 88 1006.6
20211020122545 44 0.0 0.0 0.00 0.00 0.00 92 1006.7
20211020121535 44 145 1.0 2.0 0.00 0.00 0.00 92 1006.9
20211020120530 44 0.0 0.0 0.00 0.00 0.00 93 1006.7
20211020115533 43 88 0.0 2.0 0.00 0.00 0.00 94 1006.8
20211020114530 43 119 3.0 5.0 0.00 0.00 0.00 95 1006.9
20211020113525 43 138 0.0 2.0 0.00 0.00 0.00 94 1006.9
20211020112522 43 98 2.0 3.0 0.00 0.00 0.00 94 1007.2
20211020111523 43 133 3.0 4.0 0.00 0.00 0.00 93 1007.3
20211020110532 43 281 2.0 4.0 0.00 0.00 0.00 93 1007.5
20211020105529 42 223 1.0 3.0 0.00 0.00 0.00 95 1007.6
20211020104536 41 271 3.0 4.0 0.00 0.00 0.00 96 1007.3
20211020103537 41 70 2.0 3.0 0.00 0.00 0.00 96 1006.7
20211020102530 40 235 1.0 2.0 0.00 0.00 0.00 96 1006.6
20211020101532 40 270 1.0 3.0 0.00 0.00 0.00 96 1006.1
20211020100525 40 0.0 0.0 0.00 0.00 0.00 96 1005.8
20211020095522 39 0.0 0.0 0.00 0.00 0.00 96 1005.7
20211020094530 39 0.0 0.0 0.00 0.00 0.00 96 1005.8
20211020093539 39 0.0 0.0 0.00 0.00 0.00 96 1005.7
20211020092525 39 0.0 0.0 0.00 0.00 0.00 96 1005.6
20211020091533 39 0.0 0.0 0.00 0.00 0.00 96 1005.7
20211020090525 39 0 0.0 2.0 0.00 0.00 0.00 96 1005.9
20211020085533 39 129 1.0 2.0 0.00 0.00 0.00 96 1005.9
20211020084530 39 120 2.0 2.0 0.00 0.00 0.00 96 1005.9
20211020083522 39 113 1.0 2.0 0.00 0.00 0.00 95 1005.9
20211020082521 39 0.0 0.0 0.00 0.00 0.00 94 1005.9
20211020081533 39 0.0 2.0 0.00 0.00 0.00 93 1005.9
20211020080524 39 0.0 0.0 0.00 0.00 0.00 90 1006.0
20211020075533 39 0.0 0.0 0.00 0.00 0.00 89 1006.2
20211020074532 40 0.0 0.0 0.00 0.00 0.00 88 1006.4
20211020073532 40 0 0.0 2.0 0.00 0.00 0.00 88 1006.5
20211020072535 41 0.0 2.0 0.00 0.00 0.00 87 1006.6
20211020071524 41 213 0.0 2.0 0.00 0.00 0.00 87 1006.6
20211020070528 42 248 0.0 2.0 0.00 0.00 0.00 86 1006.7
20211020065532 43 173 1.0 2.0 0.00 0.00 0.00 84 1006.7
20211020064530 42 161 1.0 3.0 0.00 0.00 0.00 85 1006.9
20211020063533 42 173 1.0 3.0 0.00 0.00 0.00 85 1006.8
20211020062535 43 203 1.0 2.0 0.00 0.00 0.00 86 1006.8
20211020061534 44 193 2.0 3.0 0.00 0.00 0.00 83 1006.9
20211020060529 44 203 2.0 3.0 0.00 0.00 0.00 84 1007.0
20211020055532 44 0.0 0.0 0.00 0.00 0.00 84 1006.7
20211020054525 44 214 1.0 2.0 0.00 0.00 0.00 84 1006.6
20211020053537 44 248 0.0 2.0 0.00 0.00 0.00 84 1006.7
20211020052531 45 0.0 0.0 0.00 0.00 0.00 82 1006.7
20211020051521 0 0.0 0.0 0.00 0.00 0.00
20211020050530 0 0.0 0.0 0.00 0.00 0.00
20211020045521 46 0.0 0.0 0.00 0.00 0.00 80 1007.0
20211020044532 46 242 1.0 2.0 0.00 0.00 0.00 79 1006.9
20211020043523 46 0.0 0.0 0.00 0.00 0.00 79 1007.0
20211020042525 46 0.0 0.0 0.00 0.00 0.00 78 1006.9
20211020041533 46 196 1.0 2.0 0.00 0.00 0.00 78 1007.0
20211020040530 47 0.0 0.0 0.00 0.00 0.00 74 1007.2
20211020035522 49 293 0.0 3.0 0.00 0.00 0.00 70 1007.3
20211020034536 50 197 2.0 3.0 0.00 0.00 0.00 68 1007.3
20211020033533 50 191 2.0 3.0 0.00 0.00 0.00 68 1007.4
20211020032530 49 208 2.0 3.0 0.00 0.00 0.00 70 1007.2
20211020031525 49 99 2.0 4.0 0.00 0.00 0.00 72 1007.2
20211020030524 50 225 1.0 3.0 0.00 0.00 0.00 68 1007.2
20211020025524 50 182 2.0 3.0 0.00 0.00 0.00 68 1007.2
20211020024529 51 199 3.0 4.0 0.00 0.00 0.00 66 1007.2
20211020023536 49 217 2.0 2.0 0.00 0.00 0.00 69 1007.3
20211020022532 51 137 1.0 2.0 0.00 0.00 0.00 66 1007.4
20211020021532 51 200 2.0 3.0 0.00 0.00 0.00 66 1007.5
20211020020529 52 229 2.0 5.0 0.00 0.00 0.00 65 1007.6
20211020015528 52 200 2.0 3.0 0.00 0.00 0.00 63 1007.5
20211020014525 52 236 2.0 3.0 0.00 0.00 0.00 65 1007.5
20211020013521 53 338 0.0 2.0 0.00 0.00 0.00 60 1007.5
20211020012529 54 174 1.0 2.0 0.00 0.00 0.00 60 1007.6
20211020011529 55 0.0 0.0 0.00 0.00 0.00 59 1007.6
20211020010524 56 111 2.0 4.0 0.00 0.00 0.00 58 1007.8
20211020005532 57 84 2.0 4.0 0.00 0.00 0.00 56 1007.7
20211020004528 57 114 3.0 5.0 0.00 0.00 0.00 56 1007.8
20211020003528 58 86 2.0 4.0 0.00 0.00 0.00 56 1008.0
20211020002525 58 92 3.0 4.0 0.00 0.00 0.00 56 1008.1
20211020001522 58 86 2.0 6.0 0.00 0.00 0.00 56 1008.3
20211020000530 58 79 3.0 6.0 0.00 0.00 0.00 55 1008.3
20211019235520 59 78 3.0 6.0 0.00 0.00 0.00 54 1008.4
20211019234539 59 58 3.0 6.0 0.00 0.00 0.00 54 1008.5
20211019233532 59 104 4.0 7.0 0.00 0.00 0.00 54 1008.6
20211019232529 59 94 4.0 6.0 0.00 0.00 0.00 54 1008.8
20211019231525 60 89 4.0 6.0 0.00 0.00 0.00 53 1009.3
20211019230528 61 74 7.0 9.0 0.00 0.00 0.00 51 1009.2
20211019225523 63 78 5.0 7.0 0.00 0.00 0.00 49 1009.2
20211019224520 63 125 5.0 8.0 0.00 0.00 0.00 50 1009.3
20211019223527 63 100 5.0 9.0 0.00 0.00 0.00 49 1009.5
20211019222531 63 54 6.0 9.0 0.00 0.00 0.00 49 1009.5
20211019221529 62 59 6.0 9.0 0.00 0.00 0.00 51 1009.6
20211019220534 63 50 7.0 10.0 0.00 0.00 0.00 50 1009.9
20211019215531 62 56 5.0 8.0 0.00 0.00 0.00 50 1010.1
20211019214528 63 47 7.0 9.0 0.00 0.00 0.00 48 1010.1
20211019213527 63 43 5.0 9.0 0.00 0.00 0.00 49 1010.2
20211019212527 63 41 6.0 9.0 0.00 0.00 0.00 50 1010.3
20211019211528 62 45 7.0 9.0 0.00 0.00 0.00 50 1010.4
20211019210529 63 49 6.0 11.0 0.00 0.00 0.00 50 1010.5
20211019205533 63 37 7.0 10.0 0.00 0.00 0.00 51 1010.5
20211019204527 62 44 4.0 8.0 0.00 0.00 0.00 51 1010.8
20211019203524 62 59 5.0 9.0 0.00 0.00 0.00 52 1011.1
20211019202528 61 46 7.0 9.0 0.00 0.00 0.00 52 1011.2
20211019201525 60 39 3.0 4.0 0.00 0.00 0.00 54 1011.3
20211019200524 60 50 5.0 7.0 0.00 0.00 0.00 54 1011.5
20211019195527 60 45 3.0 5.0 0.00 0.00 0.00 55 1011.5
20211019194529 60 59 5.0 6.0 0.00 0.00 0.00 55 1011.6
20211019193527 59 26 2.0 4.0 0.00 0.00 0.00 56 1011.7
20211019192525 59 66 4.0 5.0 0.00 0.00 0.00 57 1011.8
20211019191523 59 44 6.0 8.0 0.00 0.00 0.00 57 1011.8
20211019190524 58 72 4.0 5.0 0.00 0.00 0.00 58 1012.0
20211019185528 58 40 4.0 8.0 0.00 0.00 0.00 58 1012.1
20211019184524 57 271 1.0 2.0 0.00 0.00 0.00 60 1012.2
20211019183523 55 190 3.0 3.0 0.00 0.00 0.00 61 1012.3
20211019182532 56 34 3.0 4.0 0.00 0.00 0.00 60 1012.6
20211019181535 55 116 2.0 4.0 0.00 0.00 0.00 62 1012.6
20211019180527 55 297 2.0 3.0 0.00 0.00 0.00 61 1012.9
20211019175523 53 317 2.0 3.0 0.00 0.00 0.00 65 1013.0
20211019174529 53 61 2.0 3.0 0.00 0.00 0.00 66 1013.1
20211019173527 51 69 1.0 3.0 0.00 0.00 0.00 70 1013.1
20211019172524 51 233 1.0 2.0 0.00 0.00 0.00 71 1013.1
20211019171523 50 54 1.0 3.0 0.00 0.00 0.00 73 1013.0
20211019170529 49 102 2.0 3.0 0.00 0.00 0.00 73 1013.0
20211019165532 48 353 0.0 2.0 0.00 0.00 0.00 76 1013.1
20211019164528 46 277 0.0 2.0 0.00 0.00 0.00 81 1013.0
20211019163522 46 20 2.0 3.0 0.00 0.00 0.00 79 1013.0
20211019162529 44 52 2.0 3.0 0.00 0.00 0.00 83 1013.0
20211019161528 44 42 2.0 2.0 0.00 0.00 0.00 84 1013.1
20211019160528 42 113 1.0 2.0 0.00 0.00 0.00 86 1013.2
20211019155524 40 303 2.0 2.0 0.00 0.00 0.00 89 1013.2
20211019154524 41 0.0 0.0 0.00 0.00 0.00 86 1013.3
20211019153528 39 0.0 0.0 0.00 0.00 0.00 91 1013.2
20211019152528 37 0.0 0.0 0.00 0.00 0.00 94 1013.1
20211019151522 36 0.0 0.0 0.00 0.00 0.00 97 1013.1
20211019150523 34 225 0.0 2.0 0.00 0.00 0.00 97 1013.0
20211019145532 34 225 0.0 1.0 0.00 0.00 0.00 97 1013.0
20211019144527 34 273 2.0 3.0 0.00 0.00 0.00 97 1013.0
20211019143523 34 247 2.0 3.0 0.00 0.00 0.00 97 1012.9
20211019142528 34 241 2.0 3.0 0.00 0.00 0.00 97 1012.6
20211019141528 34 205 1.0 2.0 0.00 0.00 0.00 97 1012.4
20211019140528 34 0.0 0.0 0.00 0.00 0.00 97 1012.2
20211019135523 34 0.0 0.0 0.00 0.00 0.00 97 1012.2
20211019134523 34 0.0 0.0 0.00 0.00 0.00 97 1012.1
20211019133531 34 0.0 0.0 0.00 0.00 0.00 97 1012.2
20211019132527 34 0.0 0.0 0.00 0.00 0.00 97 1012.1
20211019131528 35 0.0 0.0 0.00 0.00 0.00 97 1012.1
20211019130523 36 203 0.0 2.0 0.00 0.00 0.00 97 1012.1